Content
SEND FEEDBACK

Daily
Averages
Monthly
Summary
United Kingdom

TELFORD, ENGLAND


Home > Europe > United Kingdom > England
Elevation: 269 feet     Latitude: 52 52N     Longitude: 002 31W

WEATHER
 
SELECT A DAY
Number of Records: 174,486;   Date Range: 7/1/96 - 11/22/14
 
SHARE

PRINT THIS DATA

[ ← Previous Day ]
WEATHER ALMANAC - SEPTEMBER 8, 2013
[ Next Day → ]
[ °C ]   °F
Weather ElementAverageHighLow
Temperature50.6 °F59 °F (1:50 pm)42.8 °F (6:50 am)
Dewpoint44.5 °F50 °F (4:50 pm)41 °F (12:50 am)
Humidity79.5 %100 % (10:50 pm)48 % (12:50 pm)
Barometer30.00 in30.02 in (9:50 pm)29.98 in (12:50 am)
Wind Speed5.8 mph11.5 mph (11:50 am)
Weather ElementAverage
Visibility8.6 mi
Wind DirectionS (180.7 °)

Weather ElementTotal
Precipitation---
Heating Degree Days14.1 (Base 65)
Growing Degree Days0.9 (Base 50)
Averaged from 30 records on September 8, 2013
WEATHER CONDITIONS BREAKOUT
WIND DIRECTION BREAKOUT
WEATHER BY HOUR - SEPTEMBER 8, 2013
[ °C ]   °F
Local TimeTemperatureDewpointHumidityBarometerVisibilityWind DirectionWind SpeedGust SpeedPrecipitationEventsConditions
12:50 AM48.2 °F41.0 °F76 %29.98 in6.2 miSouth (180°)5.8 mph
1:50 AM46.4 °F41.0 °F81 %29.98 in6.2 miSE (140°)5.8 mph
2:50 AM44.6 °F41.0 °F87 %29.98 in6.2 miESE (120°)4.6 mph
3:50 AM44.0 °F41.0 °F87 %30.01 in19.0 miESE (120°)2.3 mphMostly Cloudy
3:50 AM44.6 °F41.0 °F87 %29.98 in6.2 miESE (120°)2.3 mphMostly Cloudy
4:50 AM46.4 °F41.0 °F81 %29.98 in6.2 miSouth (180°)6.9 mphMostly Cloudy
5:50 AM44.6 °F41.0 °F87 %29.98 in6.2 miSSE (160°)5.8 mphPartly Cloudy
6:50 AM42.8 °F41.0 °F93 %30.01 in6.2 miSSE (150°)3.5 mphPartly Cloudy
7:50 AM44.6 °F42.8 °F93 %30.01 in6.2 miSW (230°)2.3 mphPartly Cloudy
8:50 AM48.2 °F44.6 °F87 %30.01 in6.2 miSSE (160°)4.6 mph
9:50 AM53.0 °F43.0 °F58 %30.01 in22.0 miSouth (180°)10.4 mph
9:50 AM53.6 °F42.8 °F67 %30.01 in6.2 miSouth (180°)10.4 mph
10:50 AM55.4 °F42.8 °F63 %30.01 in6.2 miSouth (180°)9.2 mphPartly Cloudy
11:50 AM57.2 °F42.8 °F59 %30.01 in6.2 miSSW (210°)11.5 mphScattered Clouds
12:50 PM57.2 °F42.8 °F59 %30.01 in6.2 miSSW (200°)8.1 mphMostly Cloudy
12:50 PM57.0 °F43.0 °F48 %30.01 in19.0 miSSW (200°)8.1 mphMostly Cloudy
1:50 PM59.0 °F42.8 °F55 %29.98 in6.2 miSouth (170°)9.2 mphOvercast
2:50 PM55.4 °F46.4 °F72 %29.98 in6.2 miWest (270°)10.4 mphRainLight Rain Showers
3:50 PM53.0 °F47.0 °F73 %30.01 in12.0 miSouth (180°)8.1 mphRainRain Showers
3:50 PM53.6 °F46.4 °F77 %30.01 in6.2 miSouth (180°)8.1 mphRainRain Showers
4:50 PM53.6 °F50.0 °F88 %29.98 in6.2 miSSE (160°)4.6 mphScattered Clouds
5:50 PM53.6 °F48.2 °F82 %29.98 in6.2 miSouth (170°)5.8 mphMostly Cloudy
6:50 PM53.6 °F48.2 °F82 %29.98 in6.2 miSW (220°)3.5 mphMostly Cloudy
6:50 PM53.0 °F49.0 °F80 %30.01 in19.0 miSW (220°)3.5 mphRainRain
7:50 PM51.8 °F48.2 °F88 %29.98 in6.2 miSE (130°)1.2 mphMostly Cloudy
8:50 PM48.2 °F46.4 °F93 %30.01 in6.2 miSW (220°)5.8 mphScattered Clouds
9:50 PM48.0 °F47.0 °F94 %30.02 in19.0 miSW (220°)3.5 mph
9:50 PM48.2 °F46.4 °F93 %30.01 in6.2 miSW (220°)3.5 mph
10:50 PM48.2 °F48.2 °F100 %30.01 in6.2 miSouth (190°)2.3 mphMostly Cloudy
11:50 PM50.0 °F48.2 °F94 %30.01 in6.2 miSSE (160°)3.5 mphOvercast
Hourly data recorded from EGOS, located miles away from Telford, England







STORIES FROM OUR PARTNERS